Simultaneous Nadir Overpasses (SNOs) Predictions

Prediction of SNOs between AQUA and NPP Satellite Orbit:

Table of predicted SNOs for the next 14.0 days since TLE Epoch: 2/2/2017
Index Date (AQUA) Time (AQUA) Lat,Lon (AQUA) SZA (AQUA ) Date (NPP) Time (NPP) Lat,Lon (NPP) SZA (NPP ) Distance(km) Time Diff (sec)
1 02/04/2017 05:32:13 75.62, -25.08 114.13 02/04/2017 05:31:13 75.62, -25.01 114.17 2.28 60
2 02/04/2017 06:21:19 -76.65, 145.82 67.06 02/04/2017 06:21:36 -76.65, 145.89 67.09 1.83 17
3 02/06/2017 21:48:42 75.66, 90.93 113.29 02/06/2017 21:48:06 75.65, 90.87 113.34 1.84 36
4 02/06/2017 22:37:49 -76.65, -98.30 67.85 02/06/2017 22:38:30 -76.64, -98.38 67.87 2.19 41
5 02/09/2017 14:05:00 76.19,-151.58 111.87 02/09/2017 14:04:47 76.19,-151.56 111.87 0.53 13
6 02/09/2017 14:54:08 -77.11, 19.26 69.23 02/09/2017 14:55:12 -77.11, 19.27 69.28 0.44 64
7 02/12/2017 05:32:26 -75.10, 153.49 67.76 02/12/2017 05:31:20 -75.10, 153.40 67.68 2.62 66
8 02/12/2017 06:21:27 76.32, -35.29 110.86 02/12/2017 06:21:38 76.31, -35.37 110.87 2.28 11
9 02/14/2017 21:48:41 -75.82, -88.59 69.46 02/14/2017 21:47:58 -75.83, -88.57 69.43 0.74 43




NCC Satellite Simultaneous Nadir Overpasses (SNOs) Prediction Service
